Location: Delmar
(42.6220°N, 73.8326°W)
Time: 09:00:48
(UTC+00:00)

MOS 1 Rocket - Pass Details

Date: 29 October 2020
Orbit: 615 x 829 km, 97.4° (Epoch: 23 November)

Event Time Altitude Azimuth Distance (km) Brightness Sun altitude
Rises 23:01:14 0° 23° (NNE) 3,070 6.3 -13.4°
Reaches altitude 10° 23:03:41 10° 34° (NE) 2,183 5.5 -13.8°
Maximum altitude 23:07:55 30° 96° (E) 1,291 4.1 -14.6°
Drops below altitude 10° 23:12:20 10° 157° (SSE) 2,291 5.8 -15.4°
Sets 23:14:57 0° 168° (SSE) 3,246 6.7 -15.9°
